This demonstration page uses our WeatherBlox Daily Observations layout. Learn more.

Left ArrowRight Arrow

41.12389, -100.76542

Hourly Observations for August 6, 2019

Temp ( °F °C ) Dew Point ( °F °C ) Humidity (%) Winds ( mph kmh ) Pressure ( in mb ) Visibility ( mi km ) Precip ( " mm )
12:53 am 00:53 Clear 67 19.4 63 17.2 87 87 Calm 29.98 1015 10 16 0.00 0.00
1:53 am 01:53 Clear 66 18.9 63 17.2 90 90 Calm 29.98 1015 10 16 0.00 0.00
2:53 am 02:53 Clear 66 18.9 63 17.2 90 90 NE 3 6 29.98 1015 10 16 0.00 0.00
3:53 am 03:53 Clear 65 18.3 63 17.2 93 93 E 5 7 29.96 1015 10 16 0.00 0.00
4:53 am 04:53 Clear 65 18.3 62 16.7 90 90 Calm 29.95 1014 10 16 0.00 0.00
5:53 am 05:53 Clear 64 17.8 62 16.7 93 93 SE 5 7 29.95 1014 10 16 0.00 0.00
6:53 am 06:53 Sunny 65 18.3 63 17.2 93 93 SE 7 11 29.96 1015 9 14 0.00 0.00
7:53 am 07:53 Sunny 67 19.4 65 18.3 93 93 SE 7 11 29.98 1015 10 16 0.00 0.00
8:53 am 08:53 Sunny 71 21.7 66 18.9 84 84 SE 10 17 29.98 1015 10 16 0.00 0.00
9:53 am 09:53 Sunny 75 23.9 66 18.9 74 74 SSE 9 15 29.98 1015 10 16 0.00 0.00
10:53 am 10:53 Sunny 79 26.1 68 20 69 69 SSE 7 11 29.98 1015 10 16 0.00 0.00
11:53 am 11:53 Partly Cloudy 82 27.8 69 20.6 65 65 SSW 7 11 29.96 1015 10 16 0.00 0.00
12:53 pm 12:53 Mostly Cloudy 84 28.9 70 21.1 63 63 SSE 7 11 29.95 1014 10 16 0.00 0.00
1:02 pm 13:02 Partly Cloudy 84 28.9 69 20.6 61 61 SE 8 13 29.84 1010 10 16 0.00 0.00
1:53 pm 13:53 Mostly Cloudy 86 30 70 21.1 59 59 SSE 5 7 29.93 1014 10 16 0.00 0.00
2:53 pm 14:53 Mostly Sunny 88 31.1 72 22.2 59 59 S 8 13 29.91 1013 10 16 0.00 0.00
3:53 pm 15:53 Mostly Sunny 88 31.1 72 22.2 59 59 undefined N/A 29.89 1012 10 16 0.00 0.00
4:53 pm 16:53 Mostly Sunny 88 31.1 71 21.7 57 57 S 7 11 29.87 1012 10 16 0.00 0.00
5:53 pm 17:53 Sunny 89 31.7 70 21.1 53 53 S 7 11 29.85 1011 10 16 0.00 0.00
6:53 pm 18:53 Sunny 88 31.1 72 22.2 59 59 SSE 7 11 29.82 1010 10 16 0.00 0.00
7:53 pm 19:53 Sunny 84 28.9 72 22.2 67 67 S 5 7 29.83 1010 10 16 0.00 0.00
8:53 pm 20:53 Sunny 80 26.7 71 21.7 74 74 S 5 7 29.83 1010 10 16 0.00 0.00
9:53 pm 21:53 Clear 76 24.4 71 21.7 85 85 SSE 6 9 29.83 1010 10 16 0.00 0.00
10:53 pm 22:53 Clear 75 23.9 71 21.7 88 88 SE 6 9 29.84 1011 10 16 0.00 0.00
11:53 pm 23:53 Clear 73 22.8 70 21.1 90 90 ESE 3 6 29.81 1010 10 16 0.00 0.00

Powered by AerisWeather